Location: Henham
(51.9333°N, 0.2500°E)
Time: 19:31:12
(UTC+00:00)

STARLINK-40 - Pass Details

Date: 23 October 2019
Orbit: 548 x 551 km, 53.0° (Epoch: 11 November)

Event Time Altitude Azimuth Distance (km) Brightness Sun altitude
Rises 18:02:27 0° 277° (W) 2,719 9.1 -12.0°
Reaches altitude 10° 18:04:41 10° 279° (W) 1,825 7.7 -12.3°
Maximum altitude 18:08:50 78° 5° (N) 567 3.6 -12.9°
Enters shadow 18:11:27 22° 91° (E) 1,233 4.8 -13.3°
